Capitol Logistics 3264


KPBI
Palm Beach International Airport
West Palm Beach, Florida, US
KMIA
Miami International Airport
Miami, Florida, US

Activity Log

Date Flight Route Aircraft Duration
09/14/2019 CPX664 BUFIT2 HILEY HILEY7 SF34 0h 25m
04/04/2019 CPX664 VFR SF34 0h 25m
03/11/2019 CPX664 BUFIT2 HILEY HILEY7 SF34 0h 32m

Route Details

Aircraft Information
Primary: Saab 340AF
Backup: Not Available
Route Data
Distance: 120nm
Sched. Duration: 0h 55m
Avg. Duration: 0h 27m (-28m)
Times Flown: 3
Recm'd Route: BUFIT2 HILEY HILEY7
Planned Altitude: 6,000ft
Origin Wx: KPBI 271753Z 10011KT 10SM SCT023 28/23 A3007 RMK AO2 SLP181 T02780233 10278 20256 58012
Dest. Wx: KMIA 271753Z 10013KT 10SM SCT030 SCT250 31/22 A3004 RMK AO2 SLP173 T03110217 10317 20272 58013
Notes:

Financial History
Total Freight: 12,835lbs
Average Load: 4,278lbs/flt
Fuel Used: 1,078lbs
Avg. Fuel Used: 359lbs/flt
Fuel Expense: $1,272
Avg. Fuel Expense: $424
Avg. Fuel Cost: $1.18/lbs
Total Gross Income: $14,375
Pilot Pay: $447
Total Expenses: $1,709
Total Revenue: $11,107
Average Revenue: $4,791.73